Theta_e
279 279 279 279 279 279 278 278 278 278 278 278 278 278 278 278 278 277 277 277 276 277 278 278 279 280 281 282 283 284 284 282 281 283 286 287 286 286 287 285 285 285 286
279 279 279 278 278 278 278 278 278 277 278 277 277 277 277 277 277 276 276 276 276 276 276 277 277 280 279 279 280 280 281 283 281 280 282 283 285 286 286 286 286 285 285
279 278 278 278 278 277 277 278 277 277 276 276 276 275 275 275 275 276 276 276 276 276 276 276 277 277 278 278 278 278 279 281 281 280 280 282 283 284 284 285 285 286 285
279 278 278 277 277 277 277 276 276 275 274 273 273 273 273 274 274 275 275 275 275 276 276 277 277 277 277 277 278 278 279 278 279 279 279 280 281 282 281 282 283 283 284
277 277 277 277 277 276 275 274 273 273 272 272 272 271 271 271 273 273 274 274 273 274 274 275 276 277 279 280 278 277 277 277 278 278 278 279 279 279 279 281 281 283 284
277 277 277 276 275 274 273 272 271 271 270 270 270 269 269 270 273 275 275 273 272 271 271 272 272 273 275 278 279 281 280 277 276 276 277 277 278 280 281 281 282 281 280
277 275 274 272 271 271 270 269 268 268 268 267 267 267 267 267 272 274 274 272 271 270 270 270 271 272 272 272 274 276 277 278 279 277 274 275 276 278 280 280 281 281 281
272 270 270 269 268 269 268 267 266 266 266 266 265 265 266 267 271 272 273 271 270 269 270 270 270 270 271 272 272 272 273 274 275 275 275 274 275 277 278 279 279 280 283
271 270 269 267 265 266 263 264 265 264 264 263 265 264 263 264 268 271 271 269 269 269 269 270 270 270 272 274 272 271 272 273 276 278 278 279 281 281 281 278 277 277 278
271 269 268 266 261 261 263 262 263 261 263 264 264 263 263 261 267 270 271 269 267 268 269 270 272 271 274 275 273 271 269 270 272 271 273 274 276 275 278 277 276 275 276
267 267 266 265 261 262 260 261 259 259 261 259 260 261 261 262 263 269 271 270 269 268 269 270 271 274 275 275 276 273 272 274 274 273 273 273 274 274 274 275 276 277 276
265 265 263 261 262 262 255 257 255 256 256 257 258 259 262 263 266 269 272 273 273 270 269 270 271 274 275 277 277 278 279 279 274 271 269 269 270 271 272 274 275 276 277
261 259 260 261 261 260 256 258 257 255 255 258 259 259 261 264 264 270 272 273 274 272 272 273 276 276 277 276 276 277 275 273 271 269 269 270 271 272 273 272 273 273 274
257 260 261 260 260 260 261 260 257 256 257 258 259 260 262 265 267 267 268 271 273 272 273 272 273 273 272 273 271 272 272 272 271 270 270 271 271 271 270 271 270 271 270
258 260 261 260 258 259 259 259 260 260 261 260 263 265 265 264 266 272 273 271 272 273 271 266 263 263 264 265 266 267 268 269 268 269 268 268 269 269 269 271 270 270 268
259 260 260 259 258 259 258 258 263 267 269 270 271 270 268 270 272 273 274 274 273 271 263 258 259 260 261 262 262 263 264 264 265 267 268 269 269 269 268 270 270 270 268
257 258 258 258 257 256 255 256 255 259 264 266 267 268 269 270 271 272 272 272 268 266 254 256 257 258 259 260 261 261 262 263 265 266 266 268 269 268 268 269 270 270 271
253 256 253 254 253 253 254 254 254 253 253 255 260 264 267 268 269 270 270 265 257 258 251 256 257 258 259 259 260 260 261 263 264 266 267 268 268 269 269 269 271 274 275
250 251 251 252 252 252 253 252 252 250 250 252 254 258 259 264 267 266 265 250 255 256 257 258 259 259 259 260 260 260 262 262 264 265 268 267 267 268 268 270 271 273 275
249 252 252 250 250 249 249 250 250 249 250 250 252 253 254 255 251 253 252 251 254 256 257 258 259 260 260 260 260 261 262 263 264 265 266 268 268 269 269 270 272 272 274
249 248 251 247 246 247 247 248 249 249 250 251 252 252 263 257 252 250 252 253 253 255 256 257 258 259 260 260 261 261 262 263 264 265 266 267 268 270 272 272 273 273 274
248 247 244 246 247 247 247 248 249 249 251 251 251 249 261 248 248 249 251 252 253 254 255 256 257 258 259 260 261 261 263 264 265 265 265 265 267 268 268 269 269 271 272
248 247 247 245 247 249 250 250 249 251 252 249 248 249 247 248 246 247 250 251 252 253 254 255 255 256 258 259 261 262 263 265 266 265 264 265 266 266 267 267 267 267 267
252 252 252 251 252 251 252 252 252 253 251 249 247 247 247 247 247 248 249 251 251 252 253 253 255 254 256 257 259 262 263 267 267 265 265 264 265 265 266 266 267 267 267
254 254 254 254 253 253 253 253 253 252 249 248 248 245 245 247 247 247 249 250 251 251 252 252 254 254 255 255 256 258 260 268 266 265 264 264 264 265 264 265 265 265 265
255 254 254 254 253 253 252 252 252 250 248 248 247 246 246 247 248 247 248 249 250 250 250 252 253 252 253 255 256 260 264 270 268 265 264 264 263 263 264 263 263 263 263
Wind_Speed
6 5 6 5 6 5 5 5 5 4 5 5 5 5 5 5 5 5 5 6 6 7 7 7 9 8 6 5 5 5 6 5 10 10 5 5 5 7 7 6 7 8 7
5 5 5 5 4 5 5 5 5 5 5 5 5 6 7 7 6 8 9 8 8 9 9 9 10 7 9 7 6 8 8 8 8 14 11 8 7 7 8 9 8 6 7
6 5 4 4 4 5 5 5 5 6 6 6 7 8 9 10 10 10 10 10 10 10 11 10 11 10 11 9 7 8 8 8 8 10 11 9 8 5 7 7 8 9 6
4 4 3 3 4 5 5 6 6 6 6 8 7 8 8 9 10 10 11 12 13 13 13 13 13 12 12 11 10 11 10 9 9 10 10 9 8 6 4 7 9 4 8
4 4 2 3 4 4 4 4 4 4 5 6 9 8 8 9 8 13 13 14 14 15 14 14 13 13 21 20 12 12 12 11 10 12 12 11 8 6 8 4 8 6 8
6 5 4 3 2 1 0 2 2 4 5 6 6 7 8 8 18 20 18 14 15 15 15 14 14 17 17 25 25 27 23 14 14 10 10 13 15 12 9 9 10 9 12
6 5 5 4 3 2 1 2 4 5 6 6 7 8 10 10 18 21 23 13 14 13 14 14 14 12 15 15 20 26 25 26 27 18 17 15 17 15 14 13 12 11 13
5 4 4 3 1 2 3 4 5 5 7 8 8 9 9 10 21 22 23 14 12 13 13 13 15 15 14 16 16 15 15 14 14 13 16 17 17 15 15 15 16 19 16
5 5 3 2 2 4 4 5 5 5 7 7 8 8 10 11 21 23 20 13 12 13 12 13 14 15 21 26 18 16 14 12 15 24 27 30 30 30 27 15 14 14 15
5 4 3 3 3 2 4 4 2 4 8 8 8 9 11 12 20 22 20 10 12 10 12 14 20 18 26 26 17 15 15 13 13 14 14 19 22 20 29 18 13 15 16
5 4 3 2 1 3 3 2 2 5 7 6 9 8 10 12 14 22 23 13 10 11 10 9 10 25 28 28 27 15 16 18 19 16 13 11 10 11 11 11 16 15 15
4 3 2 1 3 2 2 3 3 4 6 6 8 8 7 10 16 19 24 24 23 13 13 11 12 28 30 31 26 28 31 27 10 9 11 11 12 12 12 13 16 16 15
4 2 1 2 3 2 2 5 3 3 4 6 7 8 9 8 9 20 24 26 26 17 12 20 32 31 32 25 28 30 25 12 11 11 12 13 12 13 15 15 15 18 21
3 2 2 2 3 3 4 4 3 4 5 6 7 8 8 8 8 10 11 11 16 16 20 12 17 22 25 22 15 14 10 10 11 13 13 13 12 12 12 11 13 12 13
3 3 3 3 3 4 5 5 5 6 8 7 7 7 8 8 9 20 19 13 12 15 17 10 9 9 8 9 9 10 10 10 10 11 13 13 13 12 12 11 12 13 14
3 3 3 3 2 4 4 6 11 16 17 17 18 12 6 17 22 24 25 25 25 26 8 6 8 8 9 10 10 11 10 11 10 11 13 13 12 11 12 13 13 13 15
5 4 3 4 3 3 3 4 7 7 13 10 11 14 17 17 21 22 22 23 20 16 3 7 8 9 9 10 10 10 12 11 13 12 12 13 11 11 14 13 14 14 14
3 5 3 3 4 3 4 4 4 5 7 6 8 14 14 17 19 19 20 16 9 7 3 7 9 9 9 10 10 11 12 12 12 12 13 11 9 10 11 12 12 15 10
4 4 4 4 4 5 3 3 4 4 5 7 9 7 8 17 16 15 15 0 7 8 8 8 8 9 10 10 10 11 12 12 13 12 12 8 9 9 12 12 12 16 13
4 7 5 3 3 3 3 4 4 4 4 5 5 6 6 4 3 5 3 3 5 6 8 9 10 9 10 10 10 11 11 12 12 11 11 11 9 9 11 12 11 10 10
3 3 5 3 3 4 4 4 4 4 4 5 6 4 17 3 5 3 6 6 6 7 8 9 9 10 10 10 10 11 11 11 11 11 11 11 11 10 9 10 11 11 10
3 4 3 4 3 3 4 4 4 4 5 5 5 4 13 2 5 5 6 6 7 7 7 8 9 9 10 10 11 12 12 12 11 11 11 11 10 9 8 7 5 4 3
4 4 3 3 4 5 4 4 4 4 5 4 4 5 3 4 4 4 6 7 7 7 7 7 8 9 8 10 10 11 12 13 10 10 10 10 10 9 7 6 5 4 3
4 4 5 4 4 4 4 5 4 6 5 4 4 4 4 5 5 6 6 6 7 7 7 7 8 10 10 11 10 11 12 13 8 9 12 9 8 9 7 6 5 6 5
4 5 5 5 4 5 4 5 5 5 4 4 5 3 4 5 5 5 5 6 6 7 9 8 8 9 11 16 15 17 18 21 9 12 8 9 9 10 8 7 6 6 8
4 4 5 4 4 4 5 5 5 4 5 5 4 4 5 6 6 6 6 6 6 7 10 8 9 11 14 12 13 18 19 18 11 14 8 7 7 7 6 7 10 6 7
Wind_Direction
122 118 101 84 66 61 56 39 27 15 5 5 357 348 347 334 320 316 310 306 308 305 305 297 299 296 293 290 284 265 258 235 263 285 268 277 257 255 267 252 254 258 257
144 123 105 84 63 53 44 32 23 12 5 352 346 345 341 340 333 330 323 317 304 303 300 296 292 293 290 283 276 280 274 267 269 276 285 282 268 266 263 269 270 241 243
151 135 110 74 50 34 27 21 19 4 356 355 357 351 344 338 333 326 315 311 305 298 296 292 293 289 288 287 280 282 278 277 274 274 277 279 282 267 273 264 265 266 255
156 142 121 65 38 29 20 16 7 356 351 351 348 341 337 333 325 317 323 318 311 304 303 297 292 287 286 288 284 283 281 280 278 277 279 277 273 276 236 263 267 241 260
173 170 149 64 50 45 33 2 339 350 353 342 336 338 336 329 325 325 317 309 307 304 304 303 300 301 300 292 284 279 277 276 275 280 283 285 275 277 269 256 257 264 256
181 177 144 119 96 97 279 322 350 347 340 331 332 326 324 320 318 316 315 309 307 305 304 304 301 296 291 295 294 291 284 281 275 276 283 280 282 283 274 274 275 275 280
165 157 147 131 177 191 359 5 1 345 338 333 329 326 316 312 314 315 314 306 301 298 300 303 301 299 302 296 295 292 291 290 284 283 280 275 285 283 287 281 271 262 266
160 155 146 154 118 26 15 1 349 346 335 325 320 309 308 308 314 315 312 308 301 294 293 297 296 296 291 290 285 281 279 276 272 268 268 275 275 279 274 272 272 274 273
171 163 151 89 54 13 357 344 338 324 315 301 308 314 307 303 309 312 315 304 297 293 290 287 282 284 289 292 286 283 281 282 284 285 283 283 284 284 282 275 265 273 259
162 142 112 93 76 355 327 317 290 293 302 308 306 305 295 294 300 307 311 298 294 291 285 281 279 280 284 290 289 286 284 282 278 273 269 269 270 267 268 275 281 268 261
129 132 129 86 70 301 269 278 283 296 297 295 294 290 282 279 285 302 305 303 293 289 286 288 281 285 290 289 286 277 272 273 269 271 272 271 274 275 269 261 259 263 262
142 147 123 26 301 295 253 274 270 273 286 288 289 291 280 281 287 300 306 306 305 301 290 284 278 279 280 280 280 273 275 281 292 289 280 274 274 272 267 264 262 270 275
135 163 222 295 293 292 273 291 294 257 266 284 291 295 294 292 281 292 299 300 302 301 291 288 296 298 295 298 292 290 291 282 274 268 266 266 265 268 271 271 269 268 268
157 235 274 266 298 288 289 275 251 257 267 272 276 278 282 294 307 299 287 292 301 303 292 296 318 324 313 302 306 301 292 282 276 271 271 272 272 272 270 267 270 271 269
184 242 253 249 255 282 268 260 260 254 249 255 260 281 303 307 300 308 320 315 314 322 333 329 330 320 314 311 307 302 299 294 282 275 272 272 269 268 267 266 265 263 258
199 214 225 245 244 272 280 288 286 287 288 291 296 300 305 308 312 320 323 329 343 333 347 331 316 314 311 311 309 306 302 296 289 287 283 278 268 266 272 271 262 257 256
212 212 215 246 245 251 261 274 297 306 307 298 303 317 314 313 324 320 334 337 345 345 327 313 311 312 310 307 304 302 300 297 290 277 275 275 271 269 273 272 270 260 256
191 228 200 222 232 237 244 250 259 282 302 303 300 310 317 326 323 335 338 352 331 331 284 309 310 309 308 305 305 303 302 303 300 295 291 271 266 269 274 276 283 287 262
203 221 216 225 228 236 242 248 249 254 261 279 306 311 310 323 326 342 350 302 312 318 320 315 310 308 306 305 303 302 301 302 302 302 306 274 264 265 267 271 278 299 309
225 239 224 220 234 242 243 250 257 253 261 265 281 294 306 309 338 331 321 288 297 304 314 313 312 309 308 306 305 306 306 309 312 311 312 312 271 260 263 269 274 279 289
217 227 233 239 231 231 232 239 246 247 250 258 268 268 298 358 317 298 303 307 305 309 310 310 311 311 310 310 310 311 308 311 314 314 315 314 314 311 289 268 268 269 266
216 227 213 228 234 237 237 233 238 243 251 264 280 277 311 328 290 298 297 294 296 290 292 297 302 305 309 314 314 311 315 313 319 319 316 315 314 313 313 308 307 308 297
215 228 240 248 232 244 247 233 239 244 261 255 265 284 297 282 267 270 282 291 291 293 297 296 295 300 305 310 308 309 311 318 317 317 316 318 320 321 324 326 334 348 9
206 225 244 248 239 236 245 257 248 258 266 269 268 265 265 271 279 282 278 284 289 294 296 294 295 294 303 311 312 309 311 318 331 321 322 321 327 333 336 342 359 18 37
223 234 242 251 247 252 258 257 262 262 261 260 270 265 267 272 276 271 278 284 292 299 300 300 296 299 303 308 306 309 314 323 348 344 334 335 342 353 358 3 10 24 38
226 236 245 250 246 244 243 255 264 267 266 268 260 267 270 282 279 275 282 289 296 301 297 295 298 298 305 307 305 313 318 329 12 356 347 348 356 1 6 15 23 32 38